Tracking 28091 objects as of 29-Sep-2023
HD Live streaming from Space Station
objects crossing your sky now

STARLINK-2548

Track STARLINK-2548 now!
10-day predictions
STARLINK-2548 is classified as:


NORAD ID: 48285
Int'l Code: 2021-036K
Perigee: 553.4 km
Apogee: 555.3 km
Inclination: 53.1 °
Period: 95.6 minutes
Semi major axis: 6925 km
RCS: Unknown
Launch date: April 29, 2021
Source: United States (US)
Launch site: AIR FORCE EASTERN TEST RANGE (AFETR)
Your satellite tracking list
Your tracking list is empty




NASA's NSSDC Master Catalog

Two Line Element Set (TLE):
1 48285U 21036K   23271.82623681  .00002708  00000-0  20069-3 0  9997
2 48285  53.0536 129.8262 0001343 101.0577 259.0563 15.06392398133736
Source of the keplerian elements: AFSPC